Location: Amanico Ergina Village
(37.7824°N, 122.4366°W)
Time: 21:33:19
(UTC+00:00)

ERS-2 - Pass Details

Date: 29 October 2020
Orbit: 493 x 498 km, 98.6° (Epoch: 24 November)

Event Time Altitude Azimuth Distance (km) Brightness Sun altitude
Rises 13:37:46 0° 199° (SSW) 2,564 5.6 -11.4°
Reaches altitude 10° 13:40:19 10° 219° (SW) 1,686 4.5 -10.9°
Maximum altitude 13:42:53 18° 264° (W) 1,258 3.6 -10.4°
Enters shadow 13:45:09 11° 306° (NW) 1,606 4.1 -10.0°
